TimeCST,TemperatureF,Dew PointF,Humidity,Sea Level PressureIn,VisibilityMPH,Wind Direction,Wind SpeedMPH,Gust SpeedMPH,PrecipitationIn,Events,Conditions,WindDirDegrees,DateUTC
12:15 AM,-7.6,-16.6,65,30.27,10.0,WNW,12.7,-,N/A,,Clear,300,2013-02-01 06:15:00
12:35 AM,-7.6,-16.6,65,30.26,10.0,NW,11.5,-,N/A,,Clear,310,2013-02-01 06:35:00
12:55 AM,-7.6,-16.6,65,30.26,10.0,WNW,12.7,-,N/A,,Clear,290,2013-02-01 06:55:00
1:15 AM,-7.6,-16.6,65,30.26,10.0,WNW,10.4,-,N/A,,Clear,290,2013-02-01 07:15:00
1:35 AM,-7.6,-16.6,65,30.25,10.0,WNW,6.9,-,N/A,,Clear,290,2013-02-01 07:35:00
1:55 AM,-7.6,-16.6,65,30.26,10.0,West,10.4,-,N/A,,Clear,280,2013-02-01 07:55:00
2:15 AM,-7.6,-16.6,65,30.26,10.0,West,9.2,-,N/A,,Clear,280,2013-02-01 08:15:00
2:35 AM,-7.6,-16.6,65,30.26,10.0,West,9.2,-,N/A,,Clear,280,2013-02-01 08:35:00
3:15 AM,-7.6,-16.6,65,30.25,10.0,West,6.9,-,N/A,,Clear,270,2013-02-01 09:15:00
3:35 AM,-7.6,-16.6,65,30.25,10.0,West,9.2,-,N/A,,Clear,260,2013-02-01 09:35:00
4:15 AM,-7.6,-16.6,65,30.23,10.0,West,8.1,-,N/A,,Clear,280,2013-02-01 10:15:00
4:35 AM,-7.6,-14.8,71,30.24,10.0,West,8.1,-,N/A,,Clear,260,2013-02-01 10:35:00
5:15 AM,-7.6,-14.8,71,30.23,10.0,West,4.6,-,N/A,,Clear,270,2013-02-01 11:15:00
5:35 AM,-7.6,-16.6,65,30.23,10.0,West,4.6,-,N/A,,Clear,270,2013-02-01 11:35:00
5:55 AM,-7.6,-16.6,65,30.22,10.0,West,3.5,-,N/A,,Clear,270,2013-02-01 11:55:00
6:15 AM,-7.6,-14.8,71,30.22,10.0,Calm,Calm,-,N/A,,Clear,0,2013-02-01 12:15:00
6:35 AM,-7.6,-16.6,65,30.20,10.0,Calm,Calm,-,N/A,,Clear,0,2013-02-01 12:35:00
6:55 AM,-7.6,-16.6,65,30.20,10.0,WSW,3.5,-,N/A,,Clear,250,2013-02-01 12:55:00
7:15 AM,-7.6,-14.8,71,30.21,10.0,SW,4.6,-,N/A,,Clear,230,2013-02-01 13:15:00
7:35 AM,-7.6,-14.8,71,30.20,10.0,SW,4.6,-,N/A,,Clear,220,2013-02-01 13:35:00
8:15 AM,-5.8,-13.0,71,30.19,10.0,SSW,5.8,-,N/A,,Clear,210,2013-02-01 14:15:00
8:35 AM,-5.8,-11.2,77,30.19,10.0,SSW,9.2,-,N/A,,Clear,210,2013-02-01 14:35:00
8:55 AM,-4.0,-9999,N/A,30.18,10.0,SSW,11.5,-,N/A,,Mostly Cloudy,200,2013-02-01 14:55:00
9:15 AM,-2.2,-11.2,66,30.18,10.0,SSW,11.5,-,N/A,,Mostly Cloudy,200,2013-02-01 15:15:00
9:35 AM,-2.2,-9.4,71,30.17,10.0,South,10.4,-,N/A,,Overcast,190,2013-02-01 15:35:00
9:55 AM,-0.4,-9.4,66,30.16,10.0,South,9.2,-,N/A,,Mostly Cloudy,170,2013-02-01 15:55:00
10:15 AM,1.4,-9.4,61,30.15,10.0,South,10.4,-,N/A,,Overcast,170,2013-02-01 16:15:00
10:35 AM,3.2,-7.6,61,30.15,10.0,South,9.2,-,N/A,,Overcast,190,2013-02-01 16:35:00
10:55 AM,3.2,-7.6,61,30.13,10.0,South,13.8,-,N/A,,Overcast,180,2013-02-01 16:55:00
11:15 AM,5.0,-5.8,61,30.14,10.0,South,9.2,-,N/A,,Mostly Cloudy,190,2013-02-01 17:15:00
11:35 AM,8.6,-5.8,52,30.12,10.0,South,13.8,-,N/A,,Partly Cloudy,180,2013-02-01 17:35:00
11:55 AM,8.6,-4.0,57,30.09,10.0,South,16.1,-,N/A,,Clear,190,2013-02-01 17:55:00
12:15 PM,10.4,-2.2,57,30.10,10.0,South,11.5,-,N/A,,Mostly Cloudy,180,2013-02-01 18:15:00
12:35 PM,10.4,-2.2,57,30.08,10.0,South,12.7,18.4,N/A,,Partly Cloudy,180,2013-02-01 18:35:00
12:55 PM,10.4,-2.2,57,30.07,10.0,South,12.7,-,N/A,,Mostly Cloudy,180,2013-02-01 18:55:00
1:15 PM,12.2,-0.4,57,30.05,10.0,South,17.3,-,N/A,,Overcast,190,2013-02-01 19:15:00
1:35 PM,12.2,-0.4,57,30.03,10.0,South,15.0,-,N/A,,Overcast,180,2013-02-01 19:35:00
1:55 PM,12.2,-0.4,57,30.02,10.0,South,17.3,21.9,N/A,,Mostly Cloudy,180,2013-02-01 19:55:00
2:15 PM,12.2,-0.4,57,30.01,10.0,South,13.8,-,N/A,,Mostly Cloudy,190,2013-02-01 20:15:00
2:35 PM,12.2,1.4,62,30.00,10.0,South,15.0,-,N/A,,Overcast,180,2013-02-01 20:35:00
2:55 PM,12.2,1.4,62,29.99,10.0,South,15.0,23.0,N/A,,Overcast,180,2013-02-01 20:55:00
3:15 PM,12.2,1.4,62,29.98,10.0,South,15.0,20.7,N/A,,Scattered Clouds,180,2013-02-01 21:15:00
3:35 PM,14.0,1.4,57,29.97,10.0,South,17.3,-,N/A,,Mostly Cloudy,190,2013-02-01 21:35:00
3:55 PM,15.8,3.2,58,29.97,10.0,South,16.1,-,N/A,,Overcast,180,2013-02-01 21:55:00
4:15 PM,15.8,3.2,58,29.96,10.0,South,13.8,-,N/A,,Overcast,190,2013-02-01 22:15:00
4:35 PM,15.8,3.2,58,29.94,10.0,South,16.1,20.7,N/A,,Mostly Cloudy,190,2013-02-01 22:35:00
4:55 PM,15.8,3.2,58,29.94,10.0,South,15.0,20.7,N/A,,Overcast,190,2013-02-01 22:55:00
5:15 PM,15.8,3.2,58,29.95,10.0,South,15.0,-,N/A,,Mostly Cloudy,190,2013-02-01 23:15:00
5:35 PM,15.8,5.0,62,29.95,10.0,South,9.2,-,N/A,,Overcast,190,2013-02-01 23:35:00
5:55 PM,17.6,6.8,63,29.94,10.0,SSW,9.2,-,N/A,,Overcast,200,2013-02-01 23:55:00
6:15 PM,17.6,8.6,68,29.94,10.0,SSW,9.2,-,N/A,,Overcast,210,2013-02-02 00:15:00
6:35 PM,17.6,8.6,68,29.95,10.0,SSW,8.1,-,N/A,,Overcast,210,2013-02-02 00:35:00
6:55 PM,17.6,8.6,68,29.94,10.0,SSW,6.9,-,N/A,,Overcast,210,2013-02-02 00:55:00
7:15 PM,17.6,8.6,68,29.94,10.0,SSW,5.8,-,N/A,,Overcast,210,2013-02-02 01:15:00
7:35 PM,17.6,8.6,68,29.94,10.0,SW,4.6,-,N/A,,Overcast,220,2013-02-02 01:35:00
7:55 PM,19.4,10.4,68,29.94,10.0,SSW,4.6,-,N/A,,Overcast,210,2013-02-02 01:55:00
8:15 PM,19.4,10.4,68,29.94,10.0,SW,6.9,-,N/A,,Overcast,220,2013-02-02 02:15:00
8:35 PM,19.4,10.4,68,29.95,10.0,West,4.6,-,N/A,,Overcast,260,2013-02-02 02:35:00
8:55 PM,19.4,10.4,68,29.95,10.0,West,5.8,-,N/A,,Overcast,260,2013-02-02 02:55:00
9:15 PM,19.4,10.4,68,29.95,10.0,WNW,5.8,-,N/A,,Overcast,290,2013-02-02 03:15:00
9:35 PM,17.6,10.4,73,29.95,10.0,WNW,4.6,-,N/A,,Overcast,290,2013-02-02 03:35:00
9:55 PM,17.6,8.6,68,29.95,10.0,West,4.6,-,N/A,,Scattered Clouds,270,2013-02-02 03:55:00
10:15 PM,15.8,6.8,68,29.96,10.0,West,8.1,-,N/A,,Partly Cloudy,280,2013-02-02 04:15:00
10:35 PM,17.6,8.6,68,29.96,10.0,WNW,11.5,-,N/A,,Mostly Cloudy,300,2013-02-02 04:35:00
10:55 PM,17.6,10.4,73,29.97,10.0,WNW,10.4,-,N/A,,Mostly Cloudy,300,2013-02-02 04:55:00
11:15 PM,17.6,10.4,73,29.98,10.0,NW,18.4,-,N/A,,Overcast,310,2013-02-02 05:15:00
11:35 PM,17.6,10.4,73,29.99,10.0,NW,18.4,-,N/A,,Overcast,320,2013-02-02 05:35:00
11:55 PM,17.6,8.6,68,29.99,10.0,NNW,17.3,-,N/A,,Overcast,330,2013-02-02 05:55:00